Location: Guayaquil
(2.1667°S, 79.9000°W)
Time: 17:47:11
(UTC-05:00)

Envisat - Visible Passes

Search period start: 15 February 2019 00:00
Search period end: 25 February 2019 00:00
Orbit: 764 x 766 km, 98.2° (Epoch: 15 February)

Date Brightness Start Highest point End Pass type
(mag) Time Alt. Az. Time Alt. Az. Time Alt. Az.
15 Feb 4.8 20:05:55 10° SSW 20:10:25 32° WSW 20:14:54 10° NW visible
16 Feb 2.9 19:28:41 10° SSE 19:33:47 88° ENE 19:38:51 10° N visible
17 Feb 3.7 18:52:42 10° SE 18:57:07 30° ENE 19:01:31 10° NNE visible
17 Feb 5.9 20:32:54 10° SW 20:35:51 16° WSW 20:38:47 10° WNW visible
18 Feb 4.2 19:54:25 10° S 19:59:14 44° WSW 20:04:03 10° NNW visible
19 Feb 2.9 19:17:34 10° SSE 19:22:36 64° ENE 19:27:36 10° N visible
20 Feb 5.5 20:20:54 10° SSW 20:24:41 21° WSW 20:28:27 10° NW visible
21 Feb 3.6 19:43:03 10° S 19:48:04 60° WSW 19:53:02 10° NNW visible
22 Feb 3.2 19:06:33 10° SSE 19:11:25 47° ENE 19:16:15 10° N visible
23 Feb 5.0 20:09:11 10° SSW 20:13:31 29° WSW 20:17:50 10° NW visible
24 Feb 3.1 19:31:47 10° S 19:36:53 83° WSW 19:41:57 10° NNW visible
